TimeCST,TemperatureF,Dew PointF,Humidity,Sea Level PressureIn,VisibilityMPH,Wind Direction,Wind SpeedMPH,Gust SpeedMPH,PrecipitationIn,Events,Conditions,WindDirDegrees,DateUTC
12:15 AM,46.4,42.8,87,30.23,10.0,Calm,Calm,-,N/A,,Clear,0,2012-11-21 06:15:00
12:35 AM,46.4,42.8,87,30.23,10.0,Calm,Calm,-,N/A,,Clear,0,2012-11-21 06:35:00
12:55 AM,46.4,42.8,87,30.23,10.0,Calm,Calm,-,N/A,,Clear,0,2012-11-21 06:55:00
1:15 AM,44.6,42.8,93,30.22,10.0,NNE,4.6,-,N/A,,Clear,30,2012-11-21 07:15:00
1:35 AM,44.6,42.8,93,30.22,10.0,WSW,4.6,-,N/A,,Clear,250,2012-11-21 07:35:00
1:55 AM,44.6,42.8,93,30.22,10.0,WNW,3.5,-,N/A,,Clear,290,2012-11-21 07:55:00
2:15 AM,46.4,44.6,93,30.22,10.0,NW,3.5,-,N/A,,Clear,310,2012-11-21 08:15:00
2:35 AM,50.0,46.4,87,30.22,10.0,Calm,Calm,-,N/A,,Clear,0,2012-11-21 08:35:00
2:55 AM,44.6,42.8,93,30.23,10.0,Calm,Calm,-,N/A,,Clear,0,2012-11-21 08:55:00
3:15 AM,44.6,42.8,93,30.22,10.0,Calm,Calm,-,N/A,,Clear,0,2012-11-21 09:15:00
3:35 AM,44.6,42.8,93,30.22,10.0,Calm,Calm,-,N/A,,Clear,0,2012-11-21 09:35:00
3:55 AM,42.8,41.0,93,30.23,10.0,Calm,Calm,-,N/A,,Clear,0,2012-11-21 09:55:00
4:15 AM,44.6,42.8,93,30.23,10.0,Calm,Calm,-,N/A,,Clear,0,2012-11-21 10:15:00
4:35 AM,44.6,42.8,93,30.23,10.0,Calm,Calm,-,N/A,,Clear,0,2012-11-21 10:35:00
4:55 AM,44.6,42.8,93,30.23,10.0,Calm,Calm,-,N/A,,Clear,0,2012-11-21 10:55:00
5:15 AM,44.6,42.8,93,30.24,10.0,Calm,Calm,-,N/A,,Clear,0,2012-11-21 11:15:00
5:35 AM,41.0,39.2,93,30.25,10.0,Calm,Calm,-,N/A,,Clear,0,2012-11-21 11:35:00
5:55 AM,42.8,41.0,93,30.25,10.0,Calm,Calm,-,N/A,,Clear,0,2012-11-21 11:55:00
6:15 AM,44.6,42.8,93,30.26,10.0,Calm,Calm,-,N/A,,Clear,0,2012-11-21 12:15:00
6:35 AM,44.6,42.8,93,30.26,7.0,Calm,Calm,-,N/A,,Clear,0,2012-11-21 12:35:00
6:55 AM,44.6,42.8,93,30.27,10.0,Calm,Calm,-,N/A,,Clear,0,2012-11-21 12:55:00
7:15 AM,42.8,41.0,93,30.27,7.0,Calm,Calm,-,N/A,,Clear,0,2012-11-21 13:15:00
7:35 AM,42.8,41.0,93,30.28,10.0,Calm,Calm,-,N/A,,Clear,0,2012-11-21 13:35:00
7:55 AM,44.6,42.8,93,30.28,7.0,Calm,Calm,-,N/A,,Clear,0,2012-11-21 13:55:00
8:15 AM,50.0,46.4,87,30.28,10.0,Calm,Calm,-,N/A,,Clear,0,2012-11-21 14:15:00
8:35 AM,50.0,46.4,87,30.29,10.0,Calm,Calm,-,N/A,,Clear,0,2012-11-21 14:35:00
8:55 AM,55.4,50.0,82,30.28,7.0,ESE,4.6,-,N/A,,Clear,120,2012-11-21 14:55:00
9:15 AM,57.2,50.0,77,30.28,10.0,SE,5.8,-,N/A,,Clear,130,2012-11-21 15:15:00
9:35 AM,62.6,53.6,72,30.29,10.0,SSE,4.6,-,N/A,,Clear,150,2012-11-21 15:35:00
9:55 AM,64.4,53.6,68,30.29,10.0,South,4.6,-,N/A,,Clear,190,2012-11-21 15:55:00
10:15 AM,64.4,53.6,68,30.29,10.0,SSE,6.9,-,N/A,,Clear,160,2012-11-21 16:15:00
10:35 AM,68.0,53.6,60,30.29,2.0,SSE,8.1,-,N/A,,Haze,150,2012-11-21 16:35:00
10:55 AM,69.8,55.4,60,30.28,2.5,SE,9.2,-,N/A,,Haze,130,2012-11-21 16:55:00
11:15 AM,71.6,53.6,53,30.27,2.5,SSE,11.5,-,N/A,,Haze,160,2012-11-21 17:15:00
11:35 AM,71.6,53.6,53,30.26,2.0,SE,12.7,16.1,N/A,,Haze,140,2012-11-21 17:35:00
11:55 AM,71.6,53.6,53,30.25,3.0,SSE,11.5,-,N/A,,Haze,160,2012-11-21 17:55:00
12:15 PM,71.6,51.8,50,30.23,7.0,SSE,13.8,19.6,N/A,,Clear,160,2012-11-21 18:15:00
12:35 PM,71.6,51.8,50,30.22,7.0,SE,15.0,19.6,N/A,,Clear,140,2012-11-21 18:35:00
12:55 PM,73.4,50.0,44,30.21,10.0,SE,15.0,21.9,N/A,,Clear,130,2012-11-21 18:55:00
1:15 PM,75.2,48.2,38,30.20,10.0,SSE,15.0,19.6,N/A,,Clear,150,2012-11-21 19:15:00
1:35 PM,75.2,48.2,38,30.20,10.0,SE,11.5,-,N/A,,Clear,140,2012-11-21 19:35:00
1:55 PM,75.2,48.2,38,30.19,10.0,SE,11.5,-,N/A,,Clear,130,2012-11-21 19:55:00
2:15 PM,75.2,48.2,38,30.18,10.0,SE,15.0,19.6,N/A,,Clear,140,2012-11-21 20:15:00
2:35 PM,75.2,48.2,38,30.17,10.0,SE,12.7,17.3,N/A,,Clear,140,2012-11-21 20:35:00
2:55 PM,75.2,46.4,36,30.17,10.0,SSE,11.5,-,N/A,,Clear,150,2012-11-21 20:55:00
3:15 PM,73.4,44.6,36,30.17,10.0,SE,13.8,-,N/A,,Clear,140,2012-11-21 21:15:00
3:35 PM,71.6,44.6,38,30.16,10.0,SE,12.7,-,N/A,,Clear,140,2012-11-21 21:35:00
3:55 PM,71.6,46.4,41,30.16,10.0,SE,10.4,-,N/A,,Clear,140,2012-11-21 21:55:00
4:15 PM,69.8,46.4,43,30.16,10.0,SE,9.2,-,N/A,,Clear,140,2012-11-21 22:15:00
4:35 PM,69.8,46.4,43,30.15,10.0,SE,8.1,-,N/A,,Clear,140,2012-11-21 22:35:00
4:55 PM,69.8,46.4,43,30.15,10.0,SE,8.1,-,N/A,,Clear,130,2012-11-21 22:55:00
5:15 PM,66.2,46.4,49,30.15,10.0,SE,5.8,-,N/A,,Clear,130,2012-11-21 23:15:00
5:35 PM,64.4,46.4,52,30.15,10.0,SE,6.9,-,N/A,,Clear,140,2012-11-21 23:35:00
5:55 PM,64.4,48.2,56,30.15,10.0,SE,5.8,-,N/A,,Clear,130,2012-11-21 23:55:00
6:15 PM,62.6,46.4,55,30.15,10.0,SE,6.9,-,N/A,,Clear,130,2012-11-22 00:15:00
6:35 PM,62.6,46.4,55,30.15,10.0,SE,6.9,-,N/A,,Clear,130,2012-11-22 00:35:00
6:55 PM,60.8,44.6,55,30.15,10.0,SE,6.9,-,N/A,,Clear,130,2012-11-22 00:55:00
7:15 PM,60.8,44.6,55,30.15,10.0,SE,6.9,-,N/A,,Clear,130,2012-11-22 01:15:00
7:35 PM,60.8,44.6,55,30.15,10.0,SE,6.9,-,N/A,,Clear,140,2012-11-22 01:35:00
7:55 PM,60.8,44.6,55,30.15,10.0,SSE,4.6,-,N/A,,Clear,150,2012-11-22 01:55:00
8:15 PM,59.0,42.8,55,30.15,10.0,SSE,5.8,-,N/A,,Clear,150,2012-11-22 02:15:00
8:35 PM,59.0,44.6,59,30.15,10.0,SE,5.8,-,N/A,,Clear,140,2012-11-22 02:35:00
8:55 PM,59.0,44.6,59,30.15,10.0,SSE,5.8,-,N/A,,Clear,150,2012-11-22 02:55:00
9:15 PM,57.2,44.6,63,30.15,10.0,SSE,5.8,-,N/A,,Clear,160,2012-11-22 03:15:00
9:35 PM,57.2,44.6,63,30.16,10.0,SSE,6.9,-,N/A,,Clear,150,2012-11-22 03:35:00
9:55 PM,55.4,44.6,67,30.15,10.0,SSE,5.8,-,N/A,,Clear,160,2012-11-22 03:55:00
10:15 PM,55.4,44.6,67,30.15,10.0,SSE,4.6,-,N/A,,Clear,160,2012-11-22 04:15:00
10:35 PM,55.4,44.6,67,30.15,10.0,SSE,3.5,-,N/A,,Clear,160,2012-11-22 04:35:00
10:55 PM,53.6,44.6,72,30.14,10.0,SSE,4.6,-,N/A,,Clear,150,2012-11-22 04:55:00
11:15 PM,55.4,46.4,72,30.13,10.0,SSE,5.8,-,N/A,,Clear,150,2012-11-22 05:15:00
11:35 PM,53.6,44.6,72,30.13,10.0,SSE,5.8,-,N/A,,Clear,160,2012-11-22 05:35:00
11:55 PM,53.6,44.6,72,30.12,10.0,SSE,5.8,-,N/A,,Clear,160,2012-11-22 05:55:00